KB3VSP Weather Reports


time (UTC)temp
F
wind
direction
speed
knots
gust
knots
rain 1hr
in
rain 24hr
in
rain mn
in
humidity
%
barometer
mb
20260504030126 44 34 0.0 0.0 0.00 0.00 0.00 75 1014.1
20260504025622 45 35 0.0 0.0 0.00 0.00 0.00 76 1014.0
20260504025119 46 35 0.0 0.0 0.00 0.00 0.00 75 1014.2
20260504024617 46 35 0.0 0.0 0.00 0.00 0.00 68 1014.1
20260504024113 46 35 0.0 0.0 0.00 0.00 0.00 69 1014.0
20260504023610 46 35 0.0 0.0 0.00 0.00 0.00 66 1014.1
20260504023105 45 35 0.9 0.9 0.00 0.00 0.00 68 1014.2
20260504022602 46 34 0.0 0.0 0.00 0.00 0.00 71 1014.0
20260504022058 47 34 0.0 0.0 0.00 0.00 0.00 70 1014.2
20260504021556 47 34 0.0 0.0 0.00 0.00 0.00 67 1014.1
20260504021053 48 35 0.0 0.0 0.00 0.00 0.00 61 1014.2
20260504020550 48 35 0.0 0.0 0.00 0.00 0.00 61 1014.0
20260504020046 48 34 0.0 0.0 0.00 0.00 0.00 61 1014.2
20260504015542 48 34 0.0 0.0 0.00 0.00 0.00 60 1014.0
20260504015038 50 34 0.0 0.0 0.00 0.00 0.00 62 1014.1
20260504014535 50 34 0.0 0.0 0.00 0.00 0.00 57 1014.6
20260504014032 50 34 0.0 0.0 0.00 0.00 0.00 58 1014.0
20260504013530 51 35 0.0 0.0 0.00 0.00 0.00 54 1014.0
20260504013027 51 35 0.0 0.0 0.00 0.00 0.00 53 1014.0
20260504012524 51 35 0.0 0.0 0.00 0.00 0.00 53 1013.9
20260504012022 52 35 0.0 0.0 0.00 0.00 0.00 52 1013.9
20260504011518 52 35 0.0 0.0 0.00 0.00 0.00 52 1013.8
20260504011014 52 35 0.0 0.0 0.00 0.00 0.00 52 1014.1
20260504010510 52 35 0.0 0.0 0.00 0.00 0.00 51 1014.0
20260504010006 53 35 0.0 0.0 0.00 0.00 0.00 51 1014.0
20260504005503 53 10 0.0 0.0 0.00 0.00 0.00 51 1014.1
20260504005001 53 10 0.0 0.0 0.00 0.00 0.00 50 1014.0
20260504004458 53 9 0.9 0.9 0.00 0.00 0.00 49 1014.1
20260504003955 53 1 0.9 0.9 0.00 0.00 0.00 49 1014.0
20260504003451 54 1 0.0 0.9 0.00 0.00 0.00 49 1013.9
20260504002948 54 8 0.9 0.9 0.00 0.00 0.00 49 1013.8
20260504002445 54 17 0.0 0.0 0.00 0.00 0.00 48 1014.0
20260504001943 54 5 0.0 0.9 0.00 0.00 0.00 48 1013.8
20260504001440 55 345 0.9 1.7 0.00 0.00 0.00 47 1013.9
20260504000936 55 345 1.7 1.7 0.00 0.00 0.00 47 1014.1
20260504000433 55 313 2.6 2.6 0.00 0.00 0.00 45 1013.8
20260503235931 55 2 0.9 1.7 0.00 0.00 0.00 46 1013.8
20260503235428 56 0 0.0 0.9 0.00 0.00 0.00 45 1014.0
20260503234926 55 170 2.6 2.6 0.00 0.00 0.00 45 1014.0
20260503234423 56 48 0.9 0.9 0.00 0.00 0.00 45 1013.8
20260503233921 56 302 1.7 1.7 0.00 0.00 0.00 45 1013.9
20260503233417 56 325 1.7 1.7 0.00 0.00 0.00 44 1013.8
20260503232914 56 237 1.7 1.7 0.00 0.00 0.00 44 1013.9
20260503232411 56 303 2.6 2.6 0.00 0.00 0.00 46 1014.0
20260503231909 57 225 2.6 2.6 0.00 0.00 0.00 44 1013.7
20260503231406 57 352 0.9 1.7 0.00 0.00 0.00 43 1014.2
20260503230902 57 352 0.0 0.9 0.00 0.00 0.00 45 1013.9
20260503230359 57 334 1.7 1.7 0.00 0.00 0.00 43 1013.8
20260503225856 57 289 1.7 2.6 0.00 0.00 0.00 43 1013.9
20260503225352 58 5 2.6 2.6 0.00 0.00 0.00 41 1014.1
20260503224849 57 254 1.7 1.7 0.00 0.00 0.00 44 1013.8
20260503224346 57 295 2.6 2.6 0.00 0.00 0.00 42 1013.9
20260503223843 57 159 3.5 4.3 0.00 0.00 0.00 41 1014.0
20260503223341 57 82 1.7 1.7 0.00 0.00 0.00 42 1014.1
20260503222836 58 283 2.6 2.6 0.00 0.00 0.00 41 1014.1
20260503222335 58 300 1.7 2.6 0.00 0.00 0.00 42 1013.9
20260503221833 58 328 2.6 2.6 0.00 0.00 0.00 40 1014.0
20260503221332 59 286 2.6 2.6 0.00 0.00 0.00 38 1014.2
20260503220827 59 348 0.9 0.9 0.00 0.00 0.00 39 1014.2
20260503220324 58 337 1.7 1.7 0.00 0.00 0.00 40 1014.0
20260503215820 58 244 2.6 2.6 0.00 0.00 0.00 41 1014.0
20260503215318 58 242 4.3 4.3 0.00 0.00 0.00 40 1014.2
20260503214816 58 288 3.5 4.3 0.00 0.00 0.00 39 1014.3
20260503214313 59 258 0.9 1.7 0.00 0.00 0.00 40 1014.0
20260503213810 58 286 0.9 0.9 0.00 0.00 0.00 40 1013.8
20260503213307 59 266 2.6 4.3 0.00 0.00 0.00 39 1013.9
20260503212804 60 335 4.3 6.1 0.00 0.00 0.00 37 1013.8
20260503212302 59 322 1.7 1.7 0.00 0.00 0.00 38 1013.5
20260503211800 60 276 3.5 4.3 0.00 0.00 0.00 38 1013.7
20260503211255 59 249 2.6 4.3 0.00 0.00 0.00 42 1013.8
20260503210755 59 92 1.7 1.7 0.00 0.00 0.00 40 1013.7
20260503210254 59 317 2.6 2.6 0.00 0.00 0.00 40 1013.9
20260503205748 60 289 2.6 2.6 0.00 0.00 0.00 40 1014.0
20260503205245 59 297 1.7 1.7 0.00 0.00 0.00 42 1013.9
20260503204741 58 309 2.6 4.3 0.00 0.00 0.00 42 1014.1
20260503204239 57 273 2.6 2.6 0.00 0.00 0.00 41 1014.1
20260503203737 57 295 6.1 7.0 0.00 0.00 0.00 40 1014.5
20260503203234 58 56 0.9 0.9 0.00 0.00 0.00 41 1014.2
20260503202731 58 308 1.7 1.7 0.00 0.00 0.00 41 1014.4
20260503202229 59 216 2.6 2.6 0.00 0.00 0.00 40 1014.6
20260503201726 57 46 0.0 0.9 0.00 0.00 0.00 43 1014.5
20260503201223 58 302 2.6 4.3 0.00 0.00 0.00 39 1014.5
20260503200719 57 326 2.6 2.6 0.00 0.00 0.00 40 1014.4
20260503200216 59 263 3.5 4.3 0.00 0.00 0.00 39 1014.5
20260503195713 59 264 3.5 4.3 0.00 0.00 0.00 39 1014.6
20260503195210 58 357 0.9 1.7 0.00 0.00 0.00 41 1014.7
20260503194707 58 53 0.9 0.9 0.00 0.00 0.00 41 1014.8
20260503194203 57 121 1.7 1.7 0.00 0.00 0.00 40 1014.7
20260503193659 58 264 4.3 6.1 0.00 0.00 0.00 39 1015.1
20260503193155 58 303 1.7 2.6 0.00 0.00 0.00 41 1015.0
20260503192651 58 294 4.3 4.3 0.00 0.00 0.00 42 1014.9
20260503192147 56 334 1.7 2.6 0.00 0.00 0.00 42 1015.0
20260503191644 56 356 0.9 1.7 0.00 0.00 0.00 44 1015.0
20260503191141 56 293 2.6 2.6 0.00 0.00 0.00 43 1015.4
20260503190638 58 331 0.9 1.7 0.00 0.00 0.00 43 1015.4
20260503190135 57 214 2.6 2.6 0.00 0.00 0.00 42 1015.5
20260503185632 57 285 4.3 5.2 0.00 0.00 0.00 44 1015.4
20260503185126 57 284 4.3 5.2 0.00 0.00 0.00 42 1015.6
20260503184622 55 301 2.6 2.6 0.00 0.00 0.00 43 1015.7
20260503184119 56 272 1.7 2.6 0.00 0.00 0.00 43 1015.6
20260503183615 57 228 3.5 6.1 0.00 0.00 0.00 43 1015.8
20260503183113 58 180 2.6 2.6 0.00 0.00 0.00 42 1015.7
20260503182611 57 259 2.6 2.6 0.00 0.00 0.00 43 1015.8
20260503182109 57 282 2.6 2.6 0.00 0.00 0.00 41 1015.8
20260503181605 57 291 2.6 4.3 0.00 0.00 0.00 43 1015.9
20260503181102 56 357 1.7 2.6 0.00 0.00 0.00 45 1015.9
20260503180559 55 23 0.9 0.9 0.00 0.00 0.00 45 1016.0
20260503180057 55 247 1.7 2.6 0.00 0.00 0.00 45 1016.2
20260503175554 55 274 2.6 2.6 0.00 0.00 0.00 45 1015.9
20260503175051 56 260 3.5 4.3 0.00 0.00 0.00 44 1016.3
20260503174548 56 269 2.6 2.6 0.00 0.00 0.00 44 1016.1
20260503174044 55 281 3.5 4.3 0.00 0.00 0.00 43 1016.3
20260503173539 55 290 4.3 5.2 0.00 0.00 0.00 42 1016.3
20260503173036 56 83 1.7 2.6 0.00 0.00 0.00 44 1016.3
20260503172534 56 313 3.5 4.3 0.00 0.00 0.00 42 1016.5
20260503172030 55 293 1.7 2.6 0.00 0.00 0.00 45 1016.4
20260503171527 56 357 4.3 6.1 0.00 0.00 0.00 41 1016.4
20260503171024 53 15 1.7 1.7 0.00 0.00 0.00 43 1016.3
20260503170520 54 0 1.7 2.6 0.00 0.00 0.00 44 1016.8
20260503150913 49 129 1.7 2.6 0.00 0.00 0.00 48 1017.3
20260503150409 49 271 3.5 6.1 0.00 0.00 0.00 49 1017.7
20260503131303 41 283 1.7 1.7 0.00 0.00 0.00 79 1018.3
20260503130800 41 325 1.7 2.6 0.00 0.00 0.00 79 1018.1
20260503130257 40 333 1.7 1.7 0.00 0.00 0.00 81 1018.3
20260503120218 34 353 0.0 0.0 0.00 0.00 0.00 99 1017.8
20260503110645 31 355 0.0 0.0 0.00 0.00 0.00 99 1017.4
20260503110142 31 355 0.0 0.0 0.00 0.00 0.00 99 1017.4
20260503100109 31 355 0.0 0.0 0.00 0.00 0.00 99 1016.8
20260503081452 31 355 0.0 0.0 0.00 0.00 0.00 99 1016.8
20260503080949 31 355 0.0 0.0 0.00 0.00 0.00 99 1016.5
20260503080446 31 355 0.0 0.0 0.00 0.00 0.00 99 1016.8
20260503072922 32 355 0.0 0.0 0.00 0.00 0.00 99 1016.6
20260503072419 32 355 0.0 0.0 0.00 0.00 0.00 99 1016.4
20260503071916 32 355 0.0 0.0 0.00 0.00 0.00 99 1016.3
20260503071414 33 355 0.0 0.0 0.00 0.00 0.00 99 1016.4
20260503070909 33 355 0.0 0.0 0.00 0.00 0.00 99 1016.3
20260503070407 33 355 0.0 0.0 0.00 0.00 0.00 99 1016.6
20260503060333 33 355 0.0 0.0 0.00 0.00 0.00 99 1016.5
20260503054821 33 355 0.0 0.0 0.00 0.00 0.00 99 1016.6
20260503054316 0 0.0 0.0 0.00 0.00 0.00 1016.9
20260503053814 0 0.0 0.0 0.00 0.00 0.00 1016.4
20260503053313 33 355 0.0 0.0 0.00 0.00 0.00 99 1016.5
20260503052808 33 355 0.0 0.0 0.00 0.00 0.00 99 1016.6
20260503052306 33 355 0.0 0.0 0.00 0.00 0.00 99 1016.9
20260503051801 33 355 0.0 0.0 0.00 0.00 0.00 99 1016.9
20260503051258 0 0.0 0.0 0.00 0.00 0.00 1017.0
20260503050755 33 355 0.0 0.0 0.00 0.00 0.00 98 1017.0
20260503050251 33 355 0.0 0.0 0.00 0.00 0.00 98 1017.1
20260503045749 0 0.0 0.0 0.00 0.00 0.00 1017.0
20260503045247 0 0.0 0.0 0.00 0.00 0.00 1017.1
20260503044742 0 0.0 0.0 0.00 0.00 0.00 1017.1
20260503044239 0 0.0 0.0 0.00 0.00 0.00 1017.1
20260503043736 0 0.0 0.0 0.00 0.00 0.00 1017.0
20260503043228 33 355 0.0 0.0 0.00 0.05 0.05 98 1017.0
20260503042724 33 355 0.0 0.0 0.00 0.05 0.05 98 1017.0
20260503042221 33 355 0.0 0.0 0.00 0.05 0.05 98 1017.1
20260503041716 33 355 0.0 0.0 0.00 0.05 0.05 97 1016.9
20260503041215 32 355 0.0 0.0 0.00 0.05 0.05 97 1017.1
20260503040712 32 355 0.0 0.0 0.00 0.05 0.05 97 1017.1
20260503040209 32 355 0.0 0.0 0.00 0.05 0.05 97 1017.2
20260503035706 33 355 0.0 0.0 0.00 0.05 0.05 97 1017.1
20260503035203 33 355 0.0 0.0 0.00 0.05 0.05 96 1017.3
20260503034701 33 355 0.0 0.0 0.00 0.05 0.05 96 1017.1
20260503034157 33 355 0.0 0.0 0.00 0.05 0.05 96 1016.9
20260503033655 33 355 0.0 0.0 0.00 0.05 0.05 96 1017.1
20260503033152 33 355 0.0 0.0 0.00 0.05 0.05 96 1017.2
20260503032650 33 355 0.0 0.0 0.00 0.05 0.05 95 1017.2
20260503032149 33 355 0.0 0.0 0.00 0.05 0.05 95 1017.2
20260503031645 34 355 0.0 0.0 0.00 0.05 0.05 95 1017.0
20260503031143 34 355 0.0 0.0 0.00 0.05 0.05 95 1016.9
20260503030633 34 354 0.0 0.0 0.00 0.05 0.05 95 1017.0